Location: Ingleside
(37.7230°N, 122.4530°W)
Time: 03:57:10
(UTC+00:00)

Daily predictions for brighter satellites

Satellite Brightness Start Highest point End
(mag) Time Altitude Azimuth Time Altitude Azimuth Time Altitude Azimuth
CZ-4C R/B 4.1 01:06:28 10° N 01:11:41 21° NE 01:17:27 10° E
ATLAS CENTAUR R/B 3.8 01:01:10 10° SW 01:14:34 75° NW 01:19:43 10° NE
H-2A R/B 3.0 01:11:41 10° ESE 01:15:49 25° ENE 01:19:52 10° NNE
COSMO-SKYMED 1 4.1 01:13:55 10° NE 01:16:46 17° E 01:19:35 10° SE
Meteor PRIRODA 3.6 01:14:00 10° SSE 01:17:38 90° E 01:21:17 10° NNW
Cosmos 1092 Rocket 4.3 01:12:39 10° N 01:18:44 46° ENE 01:24:45 10° SSE
Cosmos 1656 3.7 01:15:18 10° NNW 01:20:54 84° ENE 01:26:31 10° SSE
FengYun 1-2 T 4.2 01:17:17 10° SSE 01:22:51 71° ENE 01:28:23 10° N
Cosmos 1763 Rocket 3.8 01:19:58 10° SSW 01:25:00 71° WNW 01:30:06 10° NNE
Cosmos 1602 4.2 01:24:27 10° N 01:28:04 38° E 01:31:41 10° SSE
Cosmos 841 Rocket 3.6 01:25:48 10° S 01:30:49 53° ESE 01:35:50 10° NNE
Cosmos 1782 3.1 01:27:18 10° SSE 01:31:07 44° E 01:34:55 10° NNE
ISS -1.5 01:32:11 10° N 01:33:35 12° NNE 01:34:59 10° NE
Cosmos 1697 Rocket 2.8 01:28:17 10° NNW 01:33:46 52° ENE 01:39:13 10° SE
Okean O Rocket 3.0 01:32:05 10° ESE 01:35:08 18° ENE 01:38:12 10° NNE
Cosmos 1151 Rocket 3.9 01:33:48 10° SSE 01:37:28 28° E 01:41:10 10° NNE
Cosmos 1980 Rocket 3.0 01:32:47 10° N 01:37:39 29° ENE 01:42:28 10° ESE
Cosmos 2369 4.2 01:32:48 10° N 01:38:07 37° ENE 01:43:20 10° SE
Cosmos 1937 Rocket 3.8 01:33:44 10° N 01:38:52 47° ENE 01:43:57 10° SE
Cosmos 1743 Rocket 3.6 01:36:00 10° N 01:40:21 84° W 01:44:40 10° S
NOAA 6 4.0 01:36:56 10° SSE 01:42:04 85° ENE 01:47:14 10° NNW
Cosmos 2279 Rocket 4.4 01:36:26 10° SSE 01:42:09 40° E 01:47:52 10° NNE
CZ-2D R/B 3.5 01:41:49 10° SSE 01:45:29 46° ENE 01:49:10 10° N
Meteor 1-25 Rocket 4.2 01:40:08 10° N 01:45:44 84° E 01:51:21 10° S
Cosmos 1340 Rocket 3.8 01:42:36 10° NNW 01:46:34 51° W 01:50:30 10° S
Cosmos 990 Rocket 4.2 01:41:39 10° NNW 01:46:50 75° WSW 01:51:57 10° S
Cosmos 2082 Rocket 2.2 01:41:37 10° S 01:47:15 67° ESE 01:52:53 10° NNE
CZ-2C R/B 3.3 01:48:14 10° SSW 01:51:09 18° SSE 01:53:47 11° ESE
Cosmos 1666 Rocket 4.3 01:47:47 10° NNE 01:51:45 31° ENE 01:55:40 10° SE
CORIOLIS 4.2 01:46:27 10° SSE 01:51:51 89° WSW 01:57:18 10° NNW
Cosmos 372 Rocket 4.4 01:47:10 10° N 01:52:03 38° ENE 01:56:55 10° SE
Cosmos 1328 Rocket 4.4 01:49:00 10° SSE 01:52:51 30° E 01:56:25 11° NNE
CZ-4B DEB 4.2 01:48:31 10° SSE 01:54:02 82° ENE 01:59:34 10° NNW
Meteor 2-21 4.4 01:49:52 10° N 01:55:56 67° E 02:01:55 10° SSE
Cosmos 1634 Rocket 4.0 01:51:47 10° S 01:58:05 89° ESE 02:04:28 10° N
Cosmos 1500 3.0 01:57:06 10° N 02:00:49 63° E 02:04:28 10° SSE
Cosmos 2278 4.3 01:57:17 10° N 02:02:24 33° ENE 02:07:28 10° ESE
SKYMED 2 3.6 02:00:45 10° NNE 02:05:03 60° E 02:09:20 10° S
Landsat 5 3.8 02:03:11 16° NE 02:06:03 40° E 02:09:46 10° S
COSMOS 2406 4.1 02:00:32 10° SW 02:06:06 50° WNW 02:11:41 10° NNE
ARGOS 3.4 02:03:30 10° SE 02:08:37 46° ENE 02:13:46 10° N
Cosmos 2026 Rocket 4.0 02:03:46 10° N 02:09:54 84° W 02:15:57 10° S
Cosmos 1833 Rocket 4.2 02:05:50 10° SW 02:10:55 35° WNW 02:16:02 10° N
Cosmos 858 Rocket 4.4 02:05:40 10° NNW 02:10:59 86° ENE 02:16:15 10° SSE
SL-08 RB Rocket 4.4 02:07:39 10° SE 02:11:44 31° ENE 02:15:47 10° N
PSLV R/B 4.0 02:08:25 10° S 02:12:03 65° W 02:15:44 10° NNW
COSMOS 2455 3.3 02:07:34 10° SW 02:13:30 62° WNW 02:19:30 10° NNE
Meteor 2-6 Rocket 4.3 02:12:41 10° S 02:18:24 60° E 02:23:58 10° NNE
GPS 2-04 Rocket1 3.0 02:15:09 10° W 02:19:14 62° S 02:21:03 30° ESE
Cosmos 1570 Rocket 3.9 02:14:41 10° SSW 02:19:55 80° ESE 02:24:25 14° NNE
Sich 1 3.5 02:16:04 10° NNW 02:20:19 61° W 02:24:34 10° S
USA 229 DEB 4.2 02:13:33 10° NW 02:21:01 74° WSW 02:28:52 10° SSE
USA 229 4.2 02:13:38 10° NW 02:21:07 75° WSW 02:28:58 10° SSE
PAYLOAD B 4.5 02:16:28 10° S 02:22:03 74° WSW 02:27:41 10° NNW
DEBRIS 3.0 02:20:28 10° SSW 02:22:36 36° SE 02:22:37 36° SE
MOS 1-B Rocket 4.4 02:17:03 10° N 02:23:02 73° WNW 02:29:54 10° SSW
Cosmos 1655 Rocket 4.4 02:18:28 10° N 02:24:26 39° ENE 02:30:19 10° SE
CZ-4C R/B 3.2 02:25:26 45° SE 02:25:26 45° SE 02:28:18 10° S
Cosmos 1814 Rocket 4.1 02:21:23 10° SSW 02:26:38 76° WNW 02:31:26 12° NNE
CZ-4B R/B 3.1 02:21:58 10° SSE 02:27:26 85° ENE 02:32:49 10° NNW
Cosmos 2180 Rocket 4.4 02:22:57 10° S 02:29:17 76° E 02:35:34 10° N
deb Chang Zheng 4 3.4 02:25:34 10° SSE 02:29:52 86° ENE 02:34:12 10° NNW
Cosmos 1666 2.4 02:26:41 10° N 02:30:23 80° E 02:34:05 10° S
Cosmos 1900 4.2 02:26:39 10° SSW 02:31:30 84° ESE 02:33:46 32° NNE
USA 234 3.3 02:25:40 10° SE 02:32:13 81° SW 02:38:47 10° NW
Cosmos 1515 Rocket 3.8 02:29:56 10° SSE 02:34:03 45° E 02:34:03 45° E
CZ-2C R/B 2.8 02:29:11 10° N 02:34:20 70° WNW 02:39:28 10° SSW
Meteor 1-10 Rocket 4.2 02:32:05 10° S 02:37:48 64° E 02:41:50 20° NNE
Meteor 2-8 Rocket 4.4 02:32:53 10° S 02:39:01 88° E 02:45:13 10° N
X-37B 2.7 02:36:48 10° SSW 02:37:48 17° S 02:37:48 17° S
Cosmos 1812 4.2 02:39:29 10° SSW 02:43:03 36° W 02:46:38 10° N
USA 276 3.7 02:42:26 10° WNW 02:45:15 31° SW 02:45:51 28° SSW
Feng Yun 1-1 Rocket 4.3 02:44:07 10° SSE 02:49:59 70° ENE 02:55:51 10° N
Cosmos 1867 4.5 02:47:42 10° S 02:51:22 32° SE 02:51:22 32° SE
COSMO-SKYMED 1 4.0 02:49:01 10° N 02:53:01 37° WNW 02:57:00 10° SW
Cosmos 2208 Rocket 4.4 02:47:48 10° SSW 02:53:07 65° WNW 02:56:36 22° N
H-2A R/B 3.6 02:50:14 10° SSW 02:55:01 36° W 02:59:44 10° NNW
APEX 3.9 02:50:52 10° SSW 02:54:07 46° S 02:54:07 46° S
Cosmos 921 Rocket 3.1 02:56:57 10° SSW 03:01:05 68° WNW 03:01:05 68° WNW
CZ-4C R/B 2.9 02:53:48 10° NNW 03:01:23 75° ENE 03:07:13 23° SE
Spot 2 4.3 02:57:29 10° SSE 03:02:34 77° ENE 03:07:43 10° N
Cosmos 1633 Rocket 4.1 03:00:09 10° NNW 03:04:19 45° W 03:08:29 10° SSW
USA 32 4.0 03:01:47 10° S 03:06:21 67° SSE 03:06:21 67° SSE
DMSP B5D1-3 4.4 03:10:07 87° N 03:10:13 89° W 03:15:20 10° SSW
ISS -0.8 03:07:44 10° NW 03:08:02 12° NW 03:08:02 12° NW
Okean O Rocket 3.0 03:07:03 10° SSW 03:11:10 38° W 03:15:20 10° NNW
Cosmos 2322 Rocket 4.3 03:10:14 10° N 03:11:09 14° N 03:11:09 14° N
Cosmos 1980 Rocket 3.6 03:16:31 10° NW 03:21:41 37° WSW 03:26:47 10° S
CZ-2C R/B 3.5 03:26:19 10° WSW 03:27:57 21° SW 03:27:57 21° SW
SL-16 R/B 4.0 03:27:08 10° NNW 03:28:54 21° NNW 03:28:54 21° NNW
ATLAS 3B CENTAUR R/B 4.4 03:42:28 10° WSW 04:01:11 58° S 04:04:12 52° SSE
Cosmos 2369 Rocket 4.1 11:47:55 24° ESE 11:48:33 24° ESE 11:52:57 10° NE
